Weather History for Valparaiso, FL

Change the Weather History Date:

Thursday, February 7, 2013

  Actual Average Record
Temperature  
Mean Temperature 66 °F -  
Max Temperature 73 °F 60 °F 59 °F (2014)
Min Temperature 56 °F 34 °F 31 °F (2014)
Growing Degree Days 16 (Base 50)    
Moisture  
Dew Point 60 °F    
Average Humidity 90    
Maximum Humidity 100    
Minimum Humidity 61    
Precipitation  
Precipitation 1.39 in - - ()
Sea Level Pressure  
Sea Level Pressure 29.91 in    
Wind  
Wind Speed 7 mph (NNE)    
Max Wind Speed 25 mph    
Max Gust Speed 40 mph    
Visibility 8 miles    
Events Fog , Rain    
Averages and records for this station are not official NWS values.
T = Trace of Precipitation, MM = Missing Value Source: NWS Daily Summary

Daily Weather History Graph

Daily Weather History Graph

Search for Another Location

Airport:

Trip Planner

Search our weather history database for the weather conditions in past years. The results will help you decide how hot, cold, wet, or windy it might be!

Date:

Astronomy

Feb. 07, 2013 Rise Set
Actual Time 6:32 AM CST 5:28 PM CST
Civil Twilight 6:08 AM CST 5:52 PM CST
Nautical Twilight 5:39 AM CST 6:21 PM CST
Astronomical Twilight 5:11 AM CST 6:49 PM CST
Moon 4:05 AM CST (2/7) 2:57 PM CST (2/7)
Length of Visible Light 11h 44m
Length of Day
10h 55m
Waning Crescent, 9% of the Moon is Illuminated
Feb 7
Waning Crescent
Feb 10
New
Feb 17
First Quarter
Feb 25
Full
Mar 4
Last Quarter

Hourly Weather History & Observations

Time (CST) Temp. Dew Point Humidity Pressure Visibility Wind Dir Wind Speed Gust Speed Precip Events Conditions
12:16 AM 59.0 °F 57.2 °F 94% 30.03 in 7.0 mi ENE 5.8 mph - N/A Rain Light Rain
12:32 AM 59.0 °F 57.2 °F 94% 30.05 in 10.0 mi WNW 2.3 mph - N/A   Overcast
12:56 AM 58.6 °F 57.0 °F 94% 30.07 in 10.0 mi NNW 2.3 mph - 0.00 in   Overcast
1:26 AM 59.0 °F 57.2 °F 94% 30.04 in 10.0 mi NNE 2.3 mph - N/A   Overcast
1:57 AM 59.0 °F 57.6 °F 95% 30.03 in 10.0 mi NNE 2.3 mph - N/A   Overcast
2:37 AM 60.8 °F 59.0 °F 94% 29.97 in 10.0 mi ENE 6.9 mph - N/A Rain Light Rain
2:56 AM 60.6 °F 57.9 °F 91% 29.98 in 10.0 mi ENE 9.2 mph - 0.00 in Rain Light Rain
3:29 AM 60.8 °F 59.0 °F 94% 29.97 in 10.0 mi East 3.5 mph - N/A   Overcast
3:56 AM 61.0 °F 58.3 °F 91% 30.00 in 10.0 mi NE 3.5 mph - 0.00 in   Overcast
4:16 AM 60.8 °F 59.0 °F 94% 29.99 in 10.0 mi North 3.5 mph - N/A Rain Light Rain
4:56 AM 60.3 °F 58.5 °F 94% 30.00 in 6.0 mi ENE 5.8 mph - 0.01 in Rain Rain
5:18 AM 60.8 °F 59.0 °F 94% 29.95 in 6.0 mi NE 6.9 mph - N/A Rain Rain
5:38 AM 60.8 °F 59.0 °F 94% 29.94 in 7.0 mi East 6.9 mph - N/A Rain Light Rain
5:55 AM 60.4 °F 59.4 °F 96% 29.94 in 8.0 mi ENE 8.1 mph - 0.09 in Rain Light Rain
6:07 AM 60.8 °F 59.0 °F 94% 29.94 in 3.0 mi East 6.9 mph - N/A Rain Heavy Rain
6:56 AM 60.6 °F 59.5 °F 96% 29.91 in 2.5 mi East 10.4 mph - 0.22 in Rain Heavy Rain
7:12 AM 60.8 °F 59.0 °F 94% 29.88 in 3.0 mi ENE 11.5 mph - N/A Rain Light Rain
7:18 AM 60.8 °F 59.0 °F 94% 29.87 in 2.0 mi East 10.4 mph 18.4 mph N/A Rain Heavy Rain
7:49 AM 60.8 °F 60.8 °F 100% 29.88 in 4.0 mi East 9.2 mph - N/A Rain Light Rain
7:57 AM 61.3 °F 60.1 °F 96% 29.88 in 5.0 mi ENE 9.2 mph - 0.19 in Rain Rain
8:21 AM 60.8 °F 60.8 °F 100% 29.86 in 1.0 mi ESE 11.5 mph - N/A Rain Rain
8:55 AM 63.0 °F 61.9 °F 96% 29.82 in 1.0 mi ESE 17.3 mph 29.9 mph 0.32 in Rain Rain
9:34 AM 64.4 °F 64.4 °F 100% 29.82 in 3.0 mi SE 17.3 mph 25.3 mph N/A Rain Light Rain
9:55 AM 64.9 °F 63.9 °F 96% 29.84 in 3.0 mi SSE 20.7 mph 27.6 mph 0.25 in Rain Light Rain
10:12 AM 64.4 °F 64.4 °F 100% 29.84 in 1.0 mi SSW 25.3 mph 40.3 mph N/A Rain Light Rain
10:27 AM 66.2 °F 64.4 °F 94% 29.84 in 1.5 mi WSW 11.5 mph 19.6 mph N/A Rain Heavy Rain
10:40 AM 66.2 °F 64.4 °F 94% 29.83 in 7.0 mi West 6.9 mph 20.7 mph N/A Rain Light Rain
10:52 AM 66.2 °F 66.2 °F 100% 29.83 in 10.0 mi West 6.9 mph - N/A   Mostly Cloudy
10:55 AM 66.9 °F 65.3 °F 95% 29.83 in 10.0 mi West 6.9 mph - 0.31 in   Mostly Cloudy
11:55 AM 67.6 °F 63.7 °F 87% 29.83 in 10.0 mi NNW 6.9 mph - N/A   Mostly Cloudy
12:55 PM 68.9 °F 62.2 °F 79% 29.81 in 10.0 mi North 15.0 mph - N/A   Mostly Cloudy
1:08 PM 69.8 °F 62.6 °F 78% 29.80 in 10.0 mi NNE 15.0 mph - N/A   Scattered Clouds
1:30 PM 71.6 °F 62.6 °F 73% 29.79 in 10.0 mi North 15.0 mph - N/A   Scattered Clouds
1:55 PM 70.7 °F 61.0 °F 71% 29.82 in 10.0 mi NNE 13.8 mph - N/A   Scattered Clouds
2:55 PM 72.5 °F 60.3 °F 65% 29.82 in 10.0 mi North 5.8 mph - N/A   Partly Cloudy
3:55 PM 73.4 °F 59.0 °F 61% 29.84 in 10.0 mi NW 9.2 mph - N/A   Partly Cloudy
4:55 PM 71.8 °F 59.2 °F 64% 29.86 in 10.0 mi NNW 5.8 mph - N/A   Scattered Clouds
5:55 PM 67.5 °F 60.6 °F 79% 29.88 in 10.0 mi WNW 1.2 mph - N/A   Mostly Cloudy
6:55 PM 65.7 °F 60.4 °F 83% 29.91 in 10.0 mi West 2.3 mph - N/A   Mostly Cloudy
7:55 PM 64.0 °F 59.7 °F 86% 29.92 in 10.0 mi NNW 5.8 mph - N/A   Overcast
8:55 PM 61.7 °F 58.1 °F 88% 29.92 in 10.0 mi NNW 3.5 mph - N/A   Mostly Cloudy
9:55 PM 60.3 °F 57.7 °F 91% 29.95 in 10.0 mi NNW 3.5 mph - N/A   Mostly Cloudy
10:55 PM 58.1 °F 56.7 °F 95% 29.95 in 10.0 mi NNE 2.3 mph - N/A   Scattered Clouds
11:55 PM 56.7 °F 55.6 °F 96% 29.96 in 10.0 mi West 2.3 mph - N/A Fog Shallow Fog